Location: Newark
(52.3500°N, 175.9667°E)
Time: 02:27:39
(UTC+00:00)

N. Korean satellite - Pass Details

Date: 19 November 2019
Orbit: 456 x 506 km, 97.2° (Epoch: 09 December)

Event Time Altitude Azimuth Distance (km) Brightness Sun altitude
Rises 18:39:35 0° 10° (N) 2,625 10.2 -9.8°
Reaches altitude 10° 18:41:42 10° 6° (N) 1,732 9.2 -9.4°
Maximum altitude 18:45:23 58° 288° (WNW) 595 6.7 -8.9°
Drops below altitude 10° 18:48:59 10° 209° (SSW) 1,700 9.2 -8.4°
Sets 18:51:03 0° 205° (SSW) 2,571 10.2 -8.1°
